Time,TemperatureF,DewpointF,PressureIn,WindDirection,WindDirectionDegrees,WindSpeedMPH,WindSpeedGustMPH,Humidity,HourlyPrecipIn,Conditions,Clouds,dailyrainin,SoftwareType,DateUTC
2014-01-08 00:00:00,29.0,13.6,30.54,North,32767,2.0,2.0,52,0.00,,,0.00,Wunderground v.1.15,2014-01-08 05:00:00,
2014-01-08 00:05:00,28.9,13.0,30.54,North,32767,1.0,6.0,51,0.00,,,0.00,Wunderground v.1.15,2014-01-08 05:05:00,
2014-01-08 00:10:00,28.9,13.9,30.54,North,32767,1.0,6.0,53,0.00,,,0.00,Wunderground v.1.15,2014-01-08 05:10:00,
2014-01-08 00:15:00,28.8,13.8,30.53,North,32767,2.0,6.0,53,0.00,,,0.00,Wunderground v.1.15,2014-01-08 05:15:00,
2014-01-08 00:25:00,28.8,12.5,30.52,North,32767,2.0,6.0,50,0.00,,,0.00,Wunderground v.1.15,2014-01-08 05:25:00,
2014-01-08 00:30:00,28.7,13.3,30.53,North,32767,2.0,2.0,52,0.00,,,0.00,Wunderground v.1.15,2014-01-08 05:30:00,
2014-01-08 00:35:00,28.7,12.8,30.53,North,32767,1.0,2.0,51,0.00,,,0.00,Wunderground v.1.15,2014-01-08 05:35:00,
2014-01-08 00:45:00,28.6,12.3,30.53,North,32767,2.0,3.0,50,0.00,,,0.00,Wunderground v.1.15,2014-01-08 05:45:00,
2014-01-08 00:55:00,28.6,13.2,30.52,North,32767,1.0,2.0,52,0.00,,,0.00,Wunderground v.1.15,2014-01-08 05:55:00,
2014-01-08 01:05:00,28.6,13.2,30.52,North,32767,1.0,8.0,52,0.00,,,0.00,Wunderground v.1.15,2014-01-08 06:05:00,
2014-01-08 01:10:00,28.6,12.7,30.51,North,32767,1.0,8.0,51,0.00,,,0.00,Wunderground v.1.15,2014-01-08 06:10:00,
2014-01-08 01:15:00,28.6,13.2,30.52,North,32767,2.0,8.0,52,0.00,,,0.00,Wunderground v.1.15,2014-01-08 06:15:00,
2014-01-08 01:25:00,28.6,13.6,30.52,North,32767,2.0,8.0,53,0.00,,,0.00,Wunderground v.1.15,2014-01-08 06:25:00,
2014-01-08 01:35:00,28.6,13.2,30.53,North,32767,2.0,2.0,52,0.00,,,0.00,Wunderground v.1.15,2014-01-08 06:35:00,
2014-01-08 01:45:00,28.5,13.5,30.52,North,32767,2.0,2.0,53,0.00,,,0.00,Wunderground v.1.15,2014-01-08 06:45:00,
2014-01-08 01:55:00,28.4,13.4,30.52,North,32767,2.0,2.0,53,0.00,,,0.00,Wunderground v.1.15,2014-01-08 06:55:00,
2014-01-08 02:00:00,28.4,13.4,30.51,North,32767,2.0,3.0,53,0.00,,,0.00,Wunderground v.1.15,2014-01-08 07:00:00,
2014-01-08 02:10:00,28.2,13.7,30.51,North,32767,2.0,5.0,54,0.00,,,0.00,Wunderground v.1.15,2014-01-08 07:10:00,
2014-01-08 02:15:00,28.3,14.2,30.51,North,32767,2.0,5.0,55,0.00,,,0.00,Wunderground v.1.15,2014-01-08 07:15:00,
2014-01-08 02:25:00,28.3,14.2,30.50,North,32767,2.0,5.0,55,0.00,,,0.00,Wunderground v.1.15,2014-01-08 07:25:00,
2014-01-08 02:30:00,28.2,14.1,30.51,North,32767,2.0,4.0,55,0.00,,,0.00,Wunderground v.1.15,2014-01-08 07:30:00,
2014-01-08 02:35:00,28.2,14.1,30.50,North,32767,2.0,4.0,55,0.00,,,0.00,Wunderground v.1.15,2014-01-08 07:35:00,
2014-01-08 02:45:00,28.1,14.0,30.50,North,32767,3.0,4.0,55,0.00,,,0.00,Wunderground v.1.15,2014-01-08 07:45:00,
2014-01-08 02:55:00,28.1,14.4,30.50,North,32767,2.0,3.0,56,0.00,,,0.00,Wunderground v.1.15,2014-01-08 07:55:00,
2014-01-08 03:00:00,28.1,14.4,30.50,North,32767,2.0,2.0,56,0.00,,,0.00,Wunderground v.1.15,2014-01-08 08:00:00,
2014-01-08 03:05:00,28.1,14.0,30.50,North,32767,1.0,5.0,55,0.00,,,0.00,Wunderground v.1.15,2014-01-08 08:05:00,
2014-01-08 03:15:00,28.1,14.8,30.50,North,32767,3.0,3.0,57,0.00,,,0.00,Wunderground v.1.15,2014-01-08 08:15:00,
2014-01-08 03:25:00,27.7,14.0,30.49,North,32767,1.0,2.0,56,0.00,,,0.00,Wunderground v.1.15,2014-01-08 08:25:00,
2014-01-08 03:35:00,27.7,13.6,30.50,North,32767,2.0,3.0,55,0.00,,,0.00,Wunderground v.1.15,2014-01-08 08:35:00,
2014-01-08 03:45:00,27.5,13.8,30.50,North,32767,2.0,2.0,56,0.00,,,0.00,Wunderground v.1.15,2014-01-08 08:45:00,
2014-01-08 03:55:00,27.3,14.5,30.49,North,32767,2.0,2.0,58,0.00,,,0.00,Wunderground v.1.15,2014-01-08 08:55:00,
2014-01-08 04:05:00,27.1,14.3,30.49,North,32767,1.0,7.0,58,0.00,,,0.00,Wunderground v.1.15,2014-01-08 09:05:00,
2014-01-08 04:15:00,27.0,13.8,30.49,North,32767,1.0,7.0,57,0.00,,,0.00,Wunderground v.1.15,2014-01-08 09:15:00,
2014-01-08 04:25:00,27.1,14.7,30.49,North,32767,1.0,7.0,59,0.00,,,0.00,Wunderground v.1.15,2014-01-08 09:25:00,
2014-01-08 04:35:00,27.1,14.7,30.48,North,32767,1.0,1.0,59,0.00,,,0.00,Wunderground v.1.15,2014-01-08 09:35:00,
2014-01-08 04:45:00,27.1,15.0,30.48,North,32767,2.0,2.0,60,0.00,,,0.00,Wunderground v.1.15,2014-01-08 09:45:00,
2014-01-08 04:55:00,27.1,14.3,30.48,North,32767,2.0,2.0,58,0.00,,,0.00,Wunderground v.1.15,2014-01-08 09:55:00,
2014-01-08 05:05:00,27.1,15.0,30.48,North,32767,1.0,6.0,60,0.00,,,0.00,Wunderground v.1.15,2014-01-08 10:05:00,
2014-01-08 05:15:00,27.2,15.5,30.47,North,32767,2.0,3.0,61,0.00,,,0.00,Wunderground v.1.15,2014-01-08 10:15:00,
2014-01-08 05:25:00,27.4,16.1,30.48,North,32767,2.0,6.0,62,0.00,,,0.00,Wunderground v.1.15,2014-01-08 10:25:00,
2014-01-08 05:35:00,27.4,15.7,30.47,North,32767,2.0,5.0,61,0.00,,,0.00,Wunderground v.1.15,2014-01-08 10:35:00,
2014-01-08 05:45:00,27.4,15.7,30.48,North,32767,2.0,2.0,61,0.00,,,0.00,Wunderground v.1.15,2014-01-08 10:45:00,
2014-01-08 05:55:00,27.7,16.0,30.48,North,32767,1.0,2.0,61,0.00,,,0.00,Wunderground v.1.15,2014-01-08 10:55:00,
2014-01-08 06:00:00,27.7,16.4,30.48,North,32767,1.0,1.0,62,0.00,,,0.00,Wunderground v.1.15,2014-01-08 11:00:00,
2014-01-08 06:10:00,27.7,16.0,30.48,North,32767,2.0,7.0,61,0.00,,,0.00,Wunderground v.1.15,2014-01-08 11:10:00,
2014-01-08 06:15:00,27.7,15.6,30.48,North,32767,2.0,7.0,60,0.00,,,0.00,Wunderground v.1.15,2014-01-08 11:15:00,
2014-01-08 06:25:00,27.8,16.5,30.48,North,32767,2.0,2.0,62,0.00,,,0.00,Wunderground v.1.15,2014-01-08 11:25:00,
2014-01-08 06:35:00,28.0,16.3,30.48,North,32767,2.0,2.0,61,0.00,,,0.00,Wunderground v.1.15,2014-01-08 11:35:00,
2014-01-08 06:45:00,28.1,16.4,30.48,North,32767,2.0,3.0,61,0.00,,,0.00,Wunderground v.1.15,2014-01-08 11:45:00,
2014-01-08 06:50:00,28.2,16.8,30.47,North,32767,2.0,2.0,62,0.00,,,0.00,Wunderground v.1.15,2014-01-08 11:50:00,
2014-01-08 06:55:00,28.3,16.9,30.47,North,32767,2.0,4.0,62,0.00,,,0.00,Wunderground v.1.15,2014-01-08 11:55:00,
2014-01-08 07:05:00,28.3,16.9,30.47,North,32767,2.0,6.0,62,0.00,,,0.00,Wunderground v.1.15,2014-01-08 12:05:00,
2014-01-08 07:15:00,28.5,17.5,30.48,North,32767,2.0,6.0,63,0.00,,,0.00,Wunderground v.1.15,2014-01-08 12:15:00,
2014-01-08 07:20:00,28.5,17.1,30.48,North,32767,2.0,2.0,62,0.00,,,0.00,Wunderground v.1.15,2014-01-08 12:20:00,
2014-01-08 07:25:00,28.5,17.5,30.48,North,32767,2.0,5.0,63,0.00,,,0.00,Wunderground v.1.15,2014-01-08 12:25:00,